• In Latvia
  • List of Countries
  • For 7 days
  • Water Temperature
  • Satellite Maps
  • Weather Map
  • Weather Widgets
  • user-avatar
    Login

    Hourly Weather Ganja

    Today, 21 August, Monday

    Time Temperature Precipitation Wind Pressure Humidity
    00:00 +26°C° 0 mm 3 mps 726 mmHg 41%
    01:00 +25°C° 0 mm 2 mps 726 mmHg 42%
    02:00 +25°C° 0 mm 2 mps 726 mmHg 43%
    03:00 +24°C° 0 mm 1 mps 725 mmHg 44%
    04:00 +24°C° 0 mm 1 mps 725 mmHg 44%
    05:00 +24°C° 0 mm 2 mps 725 mmHg 43%
    06:00 +24°C° 0 mm 2 mps 725 mmHg 43%
    07:00 +26°C° 0 mm 2 mps 725 mmHg 39%
    08:00 +28°C° 0 mm 2 mps 725 mmHg 35%
    09:00 +30°C° 0 mm 2 mps 725 mmHg 30%
    10:00 +31°C° 0 mm 2 mps 724 mmHg 29%
    11:00 +32°C° 0 mm 2 mps 724 mmHg 27%
    12:00 +34°C° 0 mm 3 mps 724 mmHg 25%
    13:00 +35°C° 0 mm 3 mps 723 mmHg 25%
    14:00 +36°C° 0 mm 3 mps 723 mmHg 24%
    15:00 +37°C° 0 mm 4 mps 723 mmHg 23%
    16:00 +36°C° 0 mm 3 mps 723 mmHg 25%
    17:00 +35°C° 0 mm 3 mps 722 mmHg 26%
    18:00 +35°C° 0 mm 3 mps 722 mmHg 28%
    19:00 +33°C° 0 mm 3 mps 723 mmHg 31%
    20:00 +30°C° 0 mm 4 mps 723 mmHg 33%
    21:00 +29°C° 0 mm 4 mps 724 mmHg 35%
    22:00 +28°C° 0 mm 3 mps 724 mmHg 37%
    23:00 +27°C° 0 mm 3 mps 724 mmHg 39%

    Tomorrow, 22 August, Tuesday

    Time Temperature Precipitation Wind Pressure Humidity
    00:00 +27°C° 0 mm 3 mps 724 mmHg 40%
    01:00 +26°C° 0 mm 2 mps 723 mmHg 41%
    02:00 +25°C° 0 mm 2 mps 723 mmHg 42%
    03:00 +25°C° 0 mm 1 mps 723 mmHg 44%
    04:00 +25°C° 0 mm 1 mps 723 mmHg 43%
    05:00 +25°C° 0 mm 1 mps 723 mmHg 43%
    06:00 +25°C° 0 mm 2 mps 723 mmHg 43%
    07:00 +27°C° 0 mm 2 mps 723 mmHg 39%
    08:00 +29°C° 0 mm 2 mps 723 mmHg 34%
    09:00 +31°C° 0 mm 2 mps 723 mmHg 29%
    10:00 +32°C° 0 mm 2 mps 723 mmHg 27%
    11:00 +34°C° 0 mm 3 mps 722 mmHg 25%
    12:00 +36°C° 0 mm 3 mps 722 mmHg 23%
    13:00 +36°C° 0 mm 4 mps 722 mmHg 22%
    14:00 +37°C° 0 mm 4 mps 721 mmHg 22%
    15:00 +37°C° 0 mm 4 mps 721 mmHg 21%
    16:00 +37°C° 0 mm 4 mps 721 mmHg 23%
    17:00 +36°C° 0 mm 4 mps 721 mmHg 25%
    18:00 +35°C° 0 mm 3 mps 721 mmHg 27%
    19:00 +33°C° 0 mm 4 mps 721 mmHg 30%
    20:00 +32°C° 0 mm 4 mps 722 mmHg 32%
    21:00 +29°C° 0 mm 4 mps 722 mmHg 34%
    22:00 +28°C° 0 mm 4 mps 722 mmHg 36%
    23:00 +27°C° 0 mm 3 mps 722 mmHg 38%

    Day after tomorrow, 23 August, Wednesday

    Time Temperature Precipitation Wind Pressure Humidity
    00:00 +27°C° 0 mm 3 mps 722 mmHg 40%
    01:00 +26°C° 0 mm 2 mps 722 mmHg 41%
    02:00 +25°C° 0 mm 1 mps 722 mmHg 43%
    03:00 +25°C° 0 mm 1 mps 722 mmHg 44%
    04:00 +25°C° 0 mm 1 mps 723 mmHg 44%
    05:00 +25°C° 0 mm 1 mps 723 mmHg 44%
    06:00 +25°C° 0 mm 1 mps 723 mmHg 43%
    07:00 +27°C° 0 mm 1 mps 723 mmHg 38%
    08:00 +29°C° 0 mm 2 mps 723 mmHg 33%
    09:00 +31°C° 0 mm 2 mps 723 mmHg 28%
    10:00 +33°C° 0 mm 3 mps 723 mmHg 26%
    11:00 +35°C° 0 mm 4 mps 723 mmHg 24%
    12:00 +36°C° 0 mm 5 mps 723 mmHg 21%
    13:00 +37°C° 0 mm 5 mps 722 mmHg 21%
    14:00 +37°C° 0 mm 5 mps 722 mmHg 20%
    15:00 +39°C° 0 mm 6 mps 722 mmHg 20%
    16:00 +38°C° 0 mm 6 mps 722 mmHg 22%
    17:00 +36°C° 0 mm 6 mps 723 mmHg 24%
    18:00 +35°C° 0 mm 6 mps 723 mmHg 27%
    19:00 +33°C° 0 mm 5 mps 723 mmHg 29%
    20:00 +30°C° 0 mm 4 mps 724 mmHg 32%
    21:00 +28°C° 0 mm 4 mps 724 mmHg 35%
    22:00 +27°C° 0 mm 3 mps 725 mmHg 36%
    23:00 +27°C° 0 mm 2 mps 725 mmHg 38%

    24 August, Thursday

    Time Temperature Precipitation Wind Pressure Humidity
    00:00 +26°C° 0 mm 1 mps 725 mmHg 40%
    01:00 +25°C° 0 mm 1 mps 725 mmHg 40%
    02:00 +25°C° 0 mm 1 mps 725 mmHg 41%
    03:00 +25°C° 0 mm 2 mps 725 mmHg 42%
    04:00 +25°C° 0 mm 2 mps 726 mmHg 42%
    05:00 +25°C° 0 mm 2 mps 726 mmHg 43%
    06:00 +25°C° 0 mm 2 mps 726 mmHg 43%
    07:00 +27°C° 0 mm 2 mps 726 mmHg 38%
    08:00 +29°C° 0 mm 2 mps 726 mmHg 33%
    09:00 +31°C° 0 mm 2 mps 726 mmHg 28%
    10:00 +33°C° 0 mm 3 mps 726 mmHg 25%
    11:00 +35°C° 0 mm 4 mps 726 mmHg 23%
    12:00 +36°C° 0 mm 4 mps 726 mmHg 21%
    13:00 +37°C° 0 mm 5 mps 726 mmHg 20%
    14:00 +37°C° 0 mm 5 mps 725 mmHg 19%
    15:00 +39°C° 0 mm 6 mps 725 mmHg 18%
    16:00 +38°C° 0 mm 6 mps 725 mmHg 20%
    17:00 +36°C° 0 mm 5 mps 726 mmHg 22%
    18:00 +35°C° 0 mm 5 mps 726 mmHg 24%
    19:00 +33°C° 0 mm 5 mps 726 mmHg 26%
    20:00 +30°C° 0 mm 5 mps 727 mmHg 28%
    21:00 +28°C° 0 mm 5 mps 727 mmHg 30%
    22:00 +28°C° 0 mm 4 mps 727 mmHg 31%
    23:00 +27°C° 0 mm 3 mps 728 mmHg 32%

    25 August, Friday

    Time Temperature Precipitation Wind Pressure Humidity
    00:00 +26°C° 0 mm 3 mps 728 mmHg 33%
    01:00 +25°C° 0 mm 2 mps 728 mmHg 34%
    02:00 +25°C° 0 mm 2 mps 728 mmHg 35%
    03:00 +24°C° 0 mm 1 mps 728 mmHg 36%
    04:00 +24°C° 0 mm 1 mps 728 mmHg 36%
    05:00 +24°C° 0 mm 1 mps 728 mmHg 36%
    06:00 +24°C° 0 mm 1 mps 728 mmHg 35%
    07:00 +26°C° 0 mm 1 mps 728 mmHg 31%
    08:00 +28°C° 0 mm 1 mps 728 mmHg 26%
    09:00 +30°C° 0 mm 2 mps 728 mmHg 21%
    10:00 +31°C° 0 mm 2 mps 728 mmHg 19%
    11:00 +34°C° 0 mm 3 mps 728 mmHg 17%
    12:00 +35°C° 0 mm 4 mps 727 mmHg 15%
    13:00 +36°C° 0 mm 4 mps 727 mmHg 14%
    14:00 +37°C° 0 mm 5 mps 727 mmHg 14%
    15:00 +37°C° 0 mm 5 mps 726 mmHg 14%
    16:00 +36°C° 0 mm 5 mps 726 mmHg 16%
    17:00 +35°C° 0 mm 4 mps 726 mmHg 18%
    18:00 +34°C° 0 mm 3 mps 726 mmHg 20%
    19:00 +31°C° 0 mm 3 mps 727 mmHg 21%
    20:00 +29°C° 0 mm 4 mps 727 mmHg 23%
    21:00 +28°C° 0 mm 4 mps 728 mmHg 24%
    22:00 +27°C° 0 mm 3 mps 728 mmHg 26%
    23:00 +26°C° 0 mm 3 mps 728 mmHg 27%

    26 August, Saturday

    Time Temperature Precipitation Wind Pressure Humidity
    00:00 +25°C° 0 mm 2 mps 728 mmHg 29%
    01:00 +25°C° 0 mm 2 mps 727 mmHg 30%
    02:00 +24°C° 0 mm 2 mps 727 mmHg 30%
    03:00 +23°C° 0 mm 1 mps 727 mmHg 31%
    04:00 +23°C° 0 mm 1 mps 727 mmHg 31%
    05:00 +23°C° 0 mm 1 mps 727 mmHg 31%
    06:00 +23°C° 0 mm 1 mps 728 mmHg 30%
    07:00 +25°C° 0 mm 1 mps 728 mmHg 27%
    08:00 +27°C° 0 mm 2 mps 727 mmHg 24%
    09:00 +29°C° 0 mm 2 mps 727 mmHg 21%
    10:00 +31°C° 0 mm 3 mps 727 mmHg 19%
    11:00 +33°C° 0 mm 3 mps 727 mmHg 17%
    12:00 +35°C° 0 mm 4 mps 726 mmHg 15%
    13:00 +35°C° 0 mm 5 mps 726 mmHg 15%
    14:00 +36°C° 0 mm 5 mps 726 mmHg 15%
    15:00 +36°C° 0 mm 6 mps 725 mmHg 15%
    16:00 +35°C° 0 mm 5 mps 725 mmHg 17%
    17:00 +34°C° 0 mm 5 mps 725 mmHg 19%
    18:00 +33°C° 0 mm 4 mps 725 mmHg 21%
    19:00 +30°C° 0 mm 4 mps 726 mmHg 23%
    20:00 +29°C° 0 mm 4 mps 726 mmHg 25%
    21:00 +27°C° 0 mm 4 mps 726 mmHg 28%
    22:00 +26°C° 0 mm 4 mps 726 mmHg 30%
    23:00 +26°C° 0 mm 3 mps 726 mmHg 32%
    Show more